Regional Weather Roundup
Issued by NWS

Home | Current Version | Previous Version | Graphics & Text | Print | Product List | Glossary On
Versions: 1 2 3 4 5 6 7 8 9 10 11 12 13 14 15 16 17 18 19 20 21 22 23 24 25 26 27 28 29 30 31 32 33 34 35 36 37 38 39 40 41 42 43 44 45 46 47 48 49 50
000
ASUS43 KLOT 281608
RWRIL

ILLINOIS REGIONAL WEATHER ROUNDUP
NATIONAL WEATHER SERVICE CHICAGO/ROMEOVILLE IL
1100 AM CDT THU APR 28 2016

NOTE: "FAIR" INDICATES FEW OR NO CLOUDS BELOW 12,000 FEET WITH NO
SIGNIFICANT WEATHER AND/OR OBSTRUCTIONS TO VISIBILITY.

* THESE STATIONS ARE NOT UNDER NWS QUALITY CONTROL. THEY ALSO MAY NOT
  REPORT WEATHER SUCH AS PRECIPITATION OR FOG.

ILZ001-002-007-009-015-016-024-281700-
NORTHWEST ILLINOIS

CITY           SKY/WX    TMP DP  RH WIND       PRES   REMARKS
MOLINE         CLOUDY    51  47  86 E12       29.85R FOG
STERLING*      CLOUDY    48  45  87 E14       29.86S
SAVANNA*       CLOUDY    48  45  90 E13       29.86S FOG
$$

ILZ003-004-008-010-011-017-018-281700-
NORTH CENTRAL ILLINOIS

CITY           SKY/WX    TMP DP  RH WIND       PRES   REMARKS
ROCKFORD       CLOUDY    45  39  79 E12       29.91R
FREEPORT*      CLOUDY    43  40  92 E13       29.90S
ROCHELLE*      CLOUDY    46  43  90 E14       29.88S FOG
DE KALB*       CLOUDY    45  42  88 E12       29.89R
$$

ILZ005-006-012>014-019>023-281700-
NORTHEAST ILLINOIS

CITY           SKY/WX    TMP DP  RH WIND       PRES   REMARKS
CHICAGO-OHARE  CLOUDY    44  39  82 NE12G22   29.89R
CHICAGO-MIDWAY CLOUDY    48  43  82 NE7       29.88R FOG
AURORA           N/A     48  44  86 E10       29.88S FOG
LANSING*       CLOUDY    50  45  84 SE7       29.88R
JOLIET*        CLOUDY    50  47  91 NE5       29.87F FOG
WAUKEGAN       CLOUDY    41  35  79 NE10      29.92R
DUPAGE AIRPORT CLOUDY    46  40  79 E10       29.87S
KANKAKEE*      CLOUDY    51  48  89 E7        29.87R
WHEELING       CLOUDY    43  37  79 NE9       29.92R
MORRIS*        CLOUDY    49  47  92 E3        29.86S FOG
ROMEOVILLE*    CLOUDY    47  44  90 NE7       29.87S FOG
NORTHERLY ISL    N/A     44  41  89 NE10        N/A
NORTHERLY ISL    N/A     44  41  89 NE10        N/A
$$

LMZ740>746-281700-
SOUTHERN LAKE MICHIGAN

STATION/POSITION SKY/WX   TEMP    WIND        PRES    VSBY  WAVE
                          AIR SEA DIR/SP/G                  HT/PER
                          (F)     (DEG/KT/KT) (MB)    (MI)  (FT/S)
SOUTHERN BUOY              39 40   90/ 17/ 21 1013.7R         4/ 5
HARRISON CRIB              44      70/ 14/ 15   N/A
BURNHAM HARBOR             45      50/  9/ 13   N/A
CALUMET HARBOR             47      70/  7/  9 1010.9R
BURNS HARBOR               48      90/  7/ 15 1011.9R
MICHIGAN CITY              46     100/ 11/ 13   N/A
ST. JOSEPH                 47 46  120/ 14/ 16   N/A           3/ 6
$$

ILZ025>027-034>036-040-047-049-050-058-095>099-281700-
WEST-CENTRAL ILLINOIS

CITY           SKY/WX    TMP DP  RH WIND       PRES   REMARKS
QUINCY         CLOUDY    56  46  69 W13       29.85R
GALESBURG*     CLOUDY    56  52  86 S8        29.84R
MACOMB*        CLOUDY    58  53  84 W10       29.86R
JACKSONVILLE*  PTSUNNY   63  53  69 SW15      29.85R
PITTSFIELD*    PTSUNNY   60  49  66 W12       29.86R
$$

ILZ028>032-037-038-041>044-048-051>054-059>061-281700-
CENTRAL ILLINOIS

CITY           SKY/WX    TMP DP  RH WIND       PRES   REMARKS
PONTIAC        CLOUDY    52  51  98 NE7       29.86R FOG
BLOOMINGTON    CLOUDY    58  56  93 CALM      29.85R
DECATUR        SUNNY     68  53  58 W13       29.82R
PEORIA         PTSUNNY   58  52  80 CALM      29.84R
LACON*         CLOUDY    51  48  88 E6        29.85R
LINCOLN*       MOSUNNY   65  57  75 CALM      29.83R
SPRINGFIELD    MOSUNNY   66  52  60 W12       29.83R
TAYLORVILLE    PTSUNNY   66  54  63 SW10      29.84R
$$

ILZ033-039-045-046-055>057-062-063-281700-
EAST-CENTRAL ILLINOIS

CITY           SKY/WX    TMP DP  RH WIND       PRES   REMARKS
CHAMPAIGN      CLOUDY    64  58  80 W12       29.82R
RANTOUL*       CLOUDY    61  57  87 CALM      29.83R
MATTOON        MOSUNNY   65  55  70 W12       29.82S
PARIS*         PTSUNNY   67  63  87 SW14      29.82S
$$

ILZ079-100>102-281700-
SOUTHWEST ILLINOIS

CITY           SKY/WX    TMP DP  RH WIND       PRES   REMARKS
BELLEVILLE     SUNNY     67  51  56 SW14      29.84R
CAHOKIA*       SUNNY     65  48  54 W14G21    29.86R
SPARTA*        SUNNY     67  51  55 SW9       29.87S
$$

ILZ064>066-069>071-074>076-080>082-084>086-088>090-092>094-281700-
SOUTH-CENTRAL ILLINOIS

CITY           SKY/WX    TMP DP  RH WIND       PRES   REMARKS
CARBONDALE     MOSUNNY   69  54  58 SW14      29.88R
CAIRO*         SUNNY     70  55  58 SW12      29.89R
EFFINGHAM*     MOSUNNY   68  56  65 W13G20    29.86R
MARION         MOSUNNY   70  54  56 SW12      29.88R
MT. VERNON     MOSUNNY   70  52  52 SW14G20   29.87R
CENTRALIA*     MOSUNNY   69  56  62 W14G22    29.85R
SALEM*         MOSUNNY   69  53  57 W13       29.85R
METROPOLIS*    SUNNY     73  55  53 W9G17     29.89R
$$

ILZ067-068-072-073-078-083-087-091-281700-
SOUTHEAST ILLINOIS

CITY           SKY/WX    TMP DP  RH WIND       PRES   REMARKS
LAWRENCEVILLE  MOSUNNY   71  58  63 SW16      29.83R
FLORA*         SUNNY     71  48  44 W13       29.85R
FAIRFIELD*     SUNNY     70  50  49 W6        29.84S
HARRISBURG*    SUNNY     72  52  48 W14G20    29.87R
ROBINSON*      MOSUNNY   69  62  77 W18       29.84R
CARMI*         SUNNY     71  51  49 W16G23    29.85R
$$

ABBREVIATIONS USED IN REMARKS
   TC - TEMPERATURE IN CELSIUS
  WCI - WIND CHILL INDEX
   HX - HEAT INDEX
  VSB - VISIBILITY
$$




USA.gov is the U.S. government's official web portal to all federal, state and local government web resources and services.